Skip Page Navigation
NASA JPL Caltech
NASA Logo - Jet Propulsion Laboratory + View the NASA Portal
+ Center for Near-Earth Object Studies
JPL Home Earth Solar System Stars & Galaxies Technology
JPL Solar System Dynamics
BODIES ORBITS EPHEMERIDES TOOLS PHYSICAL DATA DISCOVERY FAQ SITE MAP
IMPORTANT: The SSD Announcement email list is now available. Major changes are coming in the near future, including possible hostname and/or URL changes. To be notified of such changes, subscribe to this email list.

Please visit this page for more details.


JPL Small-Body Database Browser
Search: [ help ]  
19600 (1999 NV41)
Classification: Main-belt Asteroid          SPK-ID: 2019600
Ephemeris | Orbit Diagram | Orbital Elements | Mission Design | Physical Parameters | Discovery Circumstances ]

[ show orbit diagram ]
Orbital Elements at Epoch 2459000.5 (2020-May-31.0) TDB
Reference: JPL 31 (heliocentric ecliptic J2000)
 Element Value Uncertainty (1-sigma)   Units 
e .1412097671709421 4.6406e-08  
a 2.533053628766447 1.2314e-08 au
q 2.175361715616827 1.1822e-07 au
i 7.758379018980975 3.8631e-06 deg
node 356.0985969682843 3.5596e-05 deg
peri 105.0366953807021 3.7783e-05 deg
M 288.7591232751204 1.4961e-05 deg
tp 2459291.901483538550
(2021-Mar-18.40148354)
6.2083e-05 TDB
period 1472.532889776215
4.03
1.0737e-05
2.94e-08
d
yr
n .2444767125403292 1.7827e-09 deg/d
Q 2.890745541916067 1.4053e-08 au
  Orbit Determination Parameters
   # obs. used (total)      1700  
   data-arc span      31659 days (86.68 yr)  
   first obs. used      1933-03-25  
   last obs. used      2019-11-28  
   planetary ephem.      DE431  
   SB-pert. ephem.      SB431-N16  
   condition code      0  
   norm. resid. RMS      .458  
   source      ORB  
   producer      Otto Matic  
   solution date      2019-Dec-14 00:38:06  

Additional Information
 Earth MOID = 1.20732 au 
 Jupiter MOID = 2.26614 au 
 T_jup = 3.423 
[ show covariance matrix ]

Ephemeris | Orbit Diagram | Orbital Elements | Mission Design | Physical Parameters | Discovery Circumstances ]

Physical Parameter Table
Parameter Symbol Value Units Sigma Reference Notes
absolute magnitude H 12.8   n/a MPO299104  
diameter diameter 6.964 km 0.106 urn:nasa:pds:neowise_diameters_albedos::2.0[mainbelt] (http://adsabs.harvard.edu/abs/2011ApJ...741...68M)  
rotation period rot_per 16.3813 h n/a LCDB (Rev. 2019-August); Warner et al., 2009 sidereal period (not synodic); Result based on less than full coverage, so that the period may be wrong by 30 percent or so.
Published Reference List:
[Durech, J.; Hanus, J.; Ali-Lagoa, V. (2018) Astron. Astrophys. 617, A57.]
geometric albedo albedo 0.192   0.026 urn:nasa:pds:neowise_diameters_albedos::2.0[mainbelt] (http://adsabs.harvard.edu/abs/2011ApJ...741...68M)  

19600 (1999 NV41)          Discovered 1999-Jul-14 by LINEAR at Socorro
Reference: 20001211/Numbers.arcLast Updated: 2004-04-19

Alternate Designations
 1999 NV41 = 1933 FK1 = 1971 SL = 1981 CG1 = 2000 SS319 
Ephemeris | Orbit Diagram | Orbital Elements | Mission Design | Physical Parameters | Discovery Circumstances ]
ABOUT SSD CREDITS/AWARDS PRIVACY/COPYRIGHT GLOSSARY LINKS
FirstGov 2020-Jun-07 03:20 UT
(server date/time)  
NASA Home Page
Site Manager:   Ryan S. Park
Webmaster  Alan B. Chamberlin